When you browse on this site, cookies collect data to enhance your experience and personalize the content and advertising you see.
Visit our Privacy Policy to learn more. By continuing to use the site, you agree to this use of cookies and data.
  • In Czech Republic
  • List of Countries
  • For 7 days
  • Water Temperature
  • Weather Map
  • Weather Widgets
  • user-avatar
    Login

    Hourly Weather Giumri

    Today, 29 May, Friday

    Time Temperature Precipitation Wind Pressure Humidity
    00:00 +15°C° 0.1 mm 1 mps 635 mmHg 70%
    01:00 +15°C° 0.2 mm 1 mps 635 mmHg 73%
    02:00 +14°C° 0.2 mm 1 mps 634 mmHg 75%
    03:00 +14°C° 0 mm 1 mps 634 mmHg 77%
    04:00 +14°C° 0 mm 1 mps 634 mmHg 76%
    05:00 +15°C° 0 mm 1 mps 634 mmHg 76%
    06:00 +16°C° 0 mm 1 mps 634 mmHg 76%
    07:00 +18°C° 0 mm 2 mps 634 mmHg 68%
    08:00 +20°C° 0 mm 2 mps 634 mmHg 60%
    09:00 +24°C° 0 mm 3 mps 635 mmHg 54%
    10:00 +25°C° 0.1 mm 4 mps 635 mmHg 49%
    11:00 +26°C° 0.1 mm 5 mps 635 mmHg 45%
    12:00 +27°C° 0.1 mm 6 mps 635 mmHg 40%
    13:00 +27°C° 0.1 mm 5 mps 635 mmHg 42%
    14:00 +27°C° 0.1 mm 5 mps 634 mmHg 43%
    15:00 +26°C° 0.1 mm 4 mps 634 mmHg 44%
    16:00 +25°C° 0.1 mm 4 mps 634 mmHg 49%
    17:00 +24°C° 0.1 mm 3 mps 634 mmHg 54%
    18:00 +21°C° 0.1 mm 3 mps 634 mmHg 59%
    19:00 +19°C° 0 mm 3 mps 633 mmHg 59%
    20:00 +17°C° 0 mm 2 mps 633 mmHg 58%
    21:00 +15°C° 0 mm 1 mps 633 mmHg 57%
    22:00 +14°C° 0 mm 1 mps 633 mmHg 58%
    23:00 +14°C° 0 mm 1 mps 632 mmHg 58%

    Tomorrow, 30 May, Saturday

    Time Temperature Precipitation Wind Pressure Humidity
    00:00 +13°C° 0 mm 1 mps 632 mmHg 59%
    01:00 +13°C° 0 mm 1 mps 632 mmHg 59%
    02:00 +12°C° 0 mm 1 mps 632 mmHg 58%
    03:00 +11°C° 0 mm 1 mps 632 mmHg 58%
    04:00 +11°C° 0 mm 1 mps 632 mmHg 60%
    05:00 +12°C° 0 mm 1 mps 633 mmHg 63%
    06:00 +12°C° 0 mm 1 mps 633 mmHg 65%
    07:00 +14°C° 0 mm 1 mps 633 mmHg 58%
    08:00 +15°C° 0 mm 1 mps 634 mmHg 50%
    09:00 +17°C° 0 mm 2 mps 634 mmHg 42%
    10:00 +18°C° 0 mm 2 mps 634 mmHg 39%
    11:00 +20°C° 0 mm 2 mps 635 mmHg 37%
    12:00 +21°C° 0 mm 2 mps 635 mmHg 34%
    13:00 +21°C° 0 mm 2 mps 635 mmHg 33%
    14:00 +23°C° 0 mm 2 mps 635 mmHg 32%
    15:00 +23°C° 0 mm 2 mps 635 mmHg 31%
    16:00 +23°C° 0 mm 2 mps 635 mmHg 37%
    17:00 +22°C° 0 mm 1 mps 634 mmHg 42%
    18:00 +22°C° 0 mm 1 mps 634 mmHg 47%
    19:00 +19°C° 0 mm 1 mps 634 mmHg 51%
    20:00 +16°C° 0 mm 1 mps 634 mmHg 54%
    21:00 +13°C° 0 mm 1 mps 633 mmHg 57%
    22:00 +13°C° 0 mm 1 mps 633 mmHg 58%
    23:00 +12°C° 0 mm 1 mps 633 mmHg 58%

    Day after tomorrow, 31 May, Sunday

    Time Temperature Precipitation Wind Pressure Humidity
    00:00 +12°C° 0 mm 1 mps 633 mmHg 59%
    01:00 +11°C° 0 mm 1 mps 633 mmHg 60%
    02:00 +11°C° 0 mm 1 mps 633 mmHg 61%
    03:00 +10°C° 0 mm 1 mps 633 mmHg 62%
    04:00 +11°C° 0 mm 1 mps 633 mmHg 64%
    05:00 +12°C° 0 mm 1 mps 634 mmHg 65%
    06:00 +12°C° 0 mm 1 mps 634 mmHg 66%
    07:00 +14°C° 0 mm 1 mps 635 mmHg 60%
    08:00 +16°C° 0 mm 1 mps 635 mmHg 54%
    09:00 +19°C° 0 mm 1 mps 636 mmHg 48%
    10:00 +20°C° 0 mm 1 mps 636 mmHg 44%
    11:00 +20°C° 0 mm 2 mps 636 mmHg 39%
    12:00 +21°C° 0 mm 2 mps 636 mmHg 35%
    13:00 +21°C° 0 mm 2 mps 636 mmHg 34%
    14:00 +23°C° 0 mm 2 mps 636 mmHg 34%
    15:00 +23°C° 0 mm 2 mps 636 mmHg 33%
    16:00 +21°C° 0 mm 2 mps 635 mmHg 39%
    17:00 +21°C° 0 mm 2 mps 635 mmHg 46%
    18:00 +21°C° 0 mm 1 mps 635 mmHg 52%
    19:00 +18°C° 0 mm 2 mps 634 mmHg 61%
    20:00 +15°C° 0 mm 2 mps 634 mmHg 69%
    21:00 +13°C° 0 mm 2 mps 633 mmHg 77%
    22:00 +12°C° 0 mm 2 mps 633 mmHg 78%
    23:00 +12°C° 0 mm 2 mps 632 mmHg 79%

    1 June, Monday

    Time Temperature Precipitation Wind Pressure Humidity
    00:00 +10°C° 0 mm 2 mps 632 mmHg 80%
    01:00 +10°C° 0 mm 2 mps 632 mmHg 79%
    02:00 +11°C° 0 mm 1 mps 632 mmHg 79%
    03:00 +11°C° 0 mm 1 mps 632 mmHg 79%
    04:00 +12°C° 0 mm 1 mps 632 mmHg 78%
    05:00 +13°C° 0 mm 1 mps 632 mmHg 76%
    06:00 +13°C° 0 mm 1 mps 633 mmHg 75%
    07:00 +15°C° 0 mm 1 mps 633 mmHg 68%
    08:00 +18°C° 0 mm 1 mps 633 mmHg 60%
    09:00 +20°C° 0 mm 1 mps 634 mmHg 52%
    10:00 +20°C° 0 mm 3 mps 634 mmHg 47%
    11:00 +21°C° 0 mm 4 mps 634 mmHg 42%
    12:00 +22°C° 0 mm 5 mps 635 mmHg 38%
    13:00 +22°C° 0 mm 6 mps 634 mmHg 37%
    14:00 +23°C° 0 mm 6 mps 634 mmHg 37%
    15:00 +23°C° 0 mm 7 mps 634 mmHg 36%
    16:00 +22°C° 0 mm 6 mps 634 mmHg 42%
    17:00 +21°C° 0 mm 5 mps 633 mmHg 48%
    18:00 +20°C° 0 mm 4 mps 633 mmHg 53%
    19:00 +18°C° 0 mm 3 mps 633 mmHg 53%
    20:00 +16°C° 0 mm 3 mps 632 mmHg 52%
    21:00 +14°C° 0 mm 2 mps 632 mmHg 51%
    22:00 +13°C° 0 mm 2 mps 632 mmHg 53%
    23:00 +12°C° 0 mm 1 mps 631 mmHg 55%

    2 June, Tuesday

    Time Temperature Precipitation Wind Pressure Humidity
    00:00 +12°C° 0 mm 1 mps 631 mmHg 57%
    01:00 +11°C° 0 mm 1 mps 631 mmHg 58%
    02:00 +11°C° 0 mm 1 mps 631 mmHg 59%
    03:00 +11°C° 0 mm 1 mps 630 mmHg 60%
    04:00 +11°C° 0 mm 1 mps 631 mmHg 61%
    05:00 +12°C° 0 mm 1 mps 631 mmHg 63%
    06:00 +13°C° 0 mm 1 mps 631 mmHg 64%
    07:00 +15°C° 0 mm 2 mps 632 mmHg 58%
    08:00 +17°C° 0 mm 3 mps 632 mmHg 52%
    09:00 +19°C° 0 mm 4 mps 633 mmHg 46%
    10:00 +20°C° 0 mm 5 mps 633 mmHg 43%
    11:00 +21°C° 0 mm 6 mps 633 mmHg 40%
    12:00 +23°C° 0 mm 7 mps 633 mmHg 37%
    13:00 +23°C° 0 mm 7 mps 633 mmHg 37%
    14:00 +23°C° 0 mm 8 mps 633 mmHg 37%
    15:00 +23°C° 0 mm 8 mps 633 mmHg 36%
    16:00 +22°C° 0 mm 7 mps 633 mmHg 41%
    17:00 +21°C° 0 mm 5 mps 633 mmHg 46%
    18:00 +20°C° 0 mm 4 mps 632 mmHg 50%
    19:00 +18°C° 0 mm 3 mps 632 mmHg 49%
    20:00 +16°C° 0 mm 2 mps 632 mmHg 48%
    21:00 +14°C° 0 mm 1 mps 632 mmHg 47%
    22:00 +13°C° 0 mm 1 mps 632 mmHg 47%
    23:00 +13°C° 0 mm 1 mps 632 mmHg 47%

    3 June, Wednesday

    Time Temperature Precipitation Wind Pressure Humidity
    00:00 +12°C° 0 mm 1 mps 632 mmHg 47%
    01:00 +12°C° 0 mm 1 mps 632 mmHg 47%
    02:00 +12°C° 0 mm 1 mps 632 mmHg 47%
    03:00 +12°C° 0 mm 1 mps 632 mmHg 47%
    04:00 +12°C° 0 mm 1 mps 632 mmHg 50%
    05:00 +13°C° 0 mm 1 mps 633 mmHg 53%
    06:00 +14°C° 0 mm 1 mps 633 mmHg 56%
    07:00 +16°C° 0 mm 1 mps 634 mmHg 51%
    08:00 +19°C° 0 mm 1 mps 634 mmHg 47%
    09:00 +21°C° 0 mm 1 mps 634 mmHg 42%
    10:00 +21°C° 0 mm 2 mps 635 mmHg 41%
    11:00 +22°C° 0 mm 3 mps 635 mmHg 39%
    12:00 +25°C° 0 mm 3 mps 635 mmHg 38%
    13:00 +25°C° 0 mm 4 mps 635 mmHg 38%
    14:00 +26°C° 0 mm 5 mps 635 mmHg 37%
    15:00 +26°C° 0 mm 6 mps 635 mmHg 37%
    16:00 +26°C° 0 mm 5 mps 635 mmHg 42%
    17:00 +25°C° 0 mm 4 mps 634 mmHg 48%
    18:00 +23°C° 0 mm 4 mps 634 mmHg 53%
    19:00 +21°C° 0 mm 3 mps 633 mmHg 52%
    20:00 +19°C° 0 mm 2 mps 633 mmHg 51%
    21:00 +17°C° 0 mm 2 mps 633 mmHg 49%
    22:00 +17°C° 0 mm 2 mps 633 mmHg 49%
    23:00 +16°C° 0 mm 2 mps 633 mmHg 48%
    Show more